Location: Invercargill
(46.4000°S, 168.3500°E)
Time: 17:08:01
(UTC+12:00)

Altair - Visible Passes

Search period start: 24 July 2019 00:00
Search period end: 03 August 2019 00:00
Orbit: 1501 x 1683 km, 47.2° (Epoch: 22 July)

Date Brightness Start Highest point End Pass type
(mag) Time Alt. Az. Time Alt. Az. Time Alt. Az.
24 Jul 8.9 03:01:12 29° E 03:01:12 29° E 03:05:12 10° E visible
24 Jul 7.4 04:59:14 72° WNW 05:00:08 76° NNW 05:10:00 10° ENE visible
24 Jul 8.3 06:57:16 17° W 07:04:01 35° NW 07:12:28 10° NNE visible
25 Jul 9.3 02:37:31 20° E 02:37:31 20° E 02:39:59 10° E visible
25 Jul 7.5 04:35:33 76° NNE 04:35:33 76° NNE 04:44:51 10° ENE visible
25 Jul 8.2 06:33:35 23° W 06:38:56 38° NW 06:47:36 10° NNE visible
26 Jul 9.6 02:13:53 13° E 02:13:53 13° E 02:14:46 10° E visible
26 Jul 7.8 04:11:55 61° NE 04:11:55 61° NE 04:19:42 10° ENE visible
26 Jul 8.1 06:09:57 30° W 06:13:50 41° NW 06:22:43 10° NNE visible
27 Jul 8.2 03:48:19 45° ENE 03:48:19 45° ENE 03:54:33 10° ENE visible
27 Jul 7.9 05:46:22 38° WNW 05:48:44 44° NW 05:57:48 10° NNE visible
27 Jul 9.4 20:58:50 10° N 20:58:55 10° N 20:58:55 10° N visible
28 Jul 8.7 03:24:47 33° ENE 03:24:47 33° ENE 03:29:22 10° ENE visible
28 Jul 7.8 05:22:50 46° NW 05:23:38 47° NW 05:32:51 10° NNE visible
28 Jul 9.1 07:21:54 10° W 07:26:23 14° WNW 07:30:49 10° NNW visible
28 Jul 9.2 20:34:15 10° N 20:35:44 13° NNE 20:35:44 13° NNE visible
29 Jul 9.1 03:01:18 23° ENE 03:01:18 23° ENE 03:04:11 10° ENE visible
29 Jul 7.8 04:59:21 49° NNW 04:59:21 49° NNW 05:07:53 10° NE visible
29 Jul 8.9 06:57:24 12° W 07:01:23 16° WNW 07:06:38 10° NNW visible
29 Jul 9.0 20:09:45 10° NNE 20:12:34 16° NNE 20:12:34 16° NNE visible
29 Jul 9.4 22:09:23 10° NW 22:10:38 15° NW 22:10:38 15° NW visible
30 Jul 9.5 02:37:52 14° ENE 02:37:52 14° ENE 02:38:59 10° ENE visible
30 Jul 8.1 04:35:55 44° N 04:35:55 44° N 04:42:53 10° NE visible
30 Jul 8.8 06:33:59 16° WNW 06:36:23 18° NW 06:42:17 10° NNW visible
30 Jul 8.9 19:45:21 10° NNE 19:49:23 16° NE 19:49:23 16° NE visible
30 Jul 9.0 21:44:22 10° NW 21:47:27 22° NNW 21:47:27 22° NNW visible
31 Jul 8.5 04:12:33 35° NNE 04:12:33 35° NNE 04:17:51 10° NE visible
31 Jul 8.7 06:10:37 20° WNW 06:11:22 20° NW 06:17:49 10° NNW visible
31 Jul 8.9 19:21:05 10° NNE 19:25:56 15° ENE 19:26:12 15° ENE visible
31 Jul 8.6 21:19:22 10° NNW 21:24:16 31° NNW 21:24:16 31° NNW visible
01 Aug 8.9 03:49:15 25° NE 03:49:15 25° NE 03:52:48 10° NE visible
01 Aug 8.7 05:47:18 22° NW 05:47:18 22° NW 05:53:17 10° N visible
01 Aug 9.0 18:57:03 10° NE 19:00:57 13° ENE 19:02:59 12° ENE visible
01 Aug 8.2 20:54:24 10° NNW 21:01:02 38° N 21:01:02 38° N visible
01 Aug 9.5 22:57:46 10° WNW 22:59:06 15° WNW 22:59:06 15° WNW visible
02 Aug 9.3 03:25:59 17° NE 03:25:59 17° NE 03:27:44 10° NE visible
02 Aug 8.8 05:24:02 21° NNW 05:24:02 21° NNW 05:28:39 10° N visible
02 Aug 9.1 18:33:29 10° NE 18:35:57 11° ENE 18:38:27 10° ENE visible
02 Aug 8.0 20:29:28 10° NNW 20:37:47 41° NNE 20:37:47 41° NNE visible
02 Aug 9.0 22:32:35 10° WNW 22:35:51 24° WNW 22:35:51 24° WNW visible
